Wind_Speed
15 16 16 16 16 16 16 16 16 16 16 16 16 16 16 15 15 15 15 15 15 15 15 15 16 16 16 16 16 16 16 16 16 15 16 16 16 16 16 16 16 16 16
16 16 16 16 16 16 16 16 16 16 17 17 17 17 17 16 15 16 16 17 18 17 17 17 17 18 18 18 18 18 18 18 18 18 17 17 17 17 18 17 16 17 17
17 16 16 17 17 17 16 16 16 17 17 17 18 18 18 17 17 18 18 18 18 18 19 19 19 19 19 19 20 20 19 19 19 19 19 18 19 18 19 19 18 18 18
18 17 17 17 17 17 18 18 18 18 17 18 19 19 19 19 19 20 20 20 20 20 20 20 20 20 21 21 22 21 21 20 21 21 20 20 20 20 20 20 20 20 20
19 18 18 18 18 19 19 19 19 19 19 19 20 20 20 21 21 22 21 21 21 21 21 22 22 22 22 22 22 23 23 22 22 21 21 21 21 21 21 21 21 21 21
19 19 19 19 19 19 20 20 21 21 21 21 22 21 21 21 22 23 23 22 21 22 22 23 23 23 24 23 23 23 23 23 22 22 22 22 22 21 21 21 21 21 21
20 21 21 21 21 20 20 21 22 22 22 23 23 22 22 21 22 23 24 23 23 23 23 23 24 25 25 25 25 25 25 24 24 23 23 23 23 22 22 22 22 21 21
22 23 23 23 23 22 22 22 22 22 23 24 24 24 23 22 23 23 25 25 25 24 24 23 24 25 26 25 26 26 26 26 25 24 24 24 24 24 23 23 23 22 22
23 23 24 24 24 23 22 22 22 22 22 23 24 24 24 24 24 25 25 26 26 26 25 25 24 25 27 27 27 28 28 27 26 26 25 25 25 25 25 25 24 24 24
24 24 25 24 24 23 23 23 22 23 23 23 24 24 25 25 25 25 25 26 27 26 26 26 26 26 26 26 26 27 28 29 29 28 27 26 26 26 26 25 25 25 25
24 25 25 24 24 24 24 24 23 23 24 24 25 25 26 26 26 26 26 26 27 27 27 27 27 27 27 26 27 28 28 29 29 29 29 28 27 27 27 27 26 26 26
24 25 25 24 24 24 24 25 25 25 26 26 26 26 26 26 27 27 27 28 28 28 28 28 28 28 28 27 28 28 29 29 29 30 30 30 29 28 27 28 27 27 26
25 25 25 25 25 24 24 25 26 27 27 27 28 28 28 28 27 28 28 28 28 29 29 29 29 29 29 28 28 28 29 29 29 30 30 29 28 28 28 28 28 27 27
25 25 25 25 25 25 25 25 26 27 27 28 29 29 29 29 29 29 29 29 29 29 29 29 29 29 28 28 27 28 28 28 29 29 29 29 29 28 28 29 28 28 28
25 25 24 23 24 25 25 25 26 28 28 28 29 29 29 30 30 30 30 30 29 28 28 28 29 28 28 28 28 28 28 27 28 29 29 29 29 29 29 29 29 29 28
24 24 24 25 25 25 26 26 27 27 27 27 28 29 29 30 30 30 30 30 29 28 28 28 29 29 29 29 28 28 28 28 28 29 29 29 29 29 29 29 29 29 29
24 24 25 25 25 26 26 26 26 26 26 27 27 28 28 29 29 30 30 30 29 29 28 28 28 29 29 29 28 29 29 29 29 29 30 30 30 29 30 29 29 28 28
25 25 25 25 26 26 26 25 25 26 26 27 27 27 27 27 28 28 29 28 28 28 28 28 29 29 29 29 30 29 29 30 30 30 31 31 31 30 30 30 29 29 28
25 25 26 26 25 25 25 24 25 24 25 25 25 25 25 26 27 27 28 28 28 28 28 29 29 29 29 30 30 30 30 30 30 31 31 31 31 30 30 30 29 29 29
25 26 27 26 25 25 25 25 25 24 24 24 24 24 25 26 26 27 28 28 28 28 29 29 29 29 29 29 30 30 30 30 30 30 31 31 31 30 30 30 29 29 29
26 26 27 27 26 25 25 25 25 25 25 25 25 25 25 25 26 27 27 27 27 28 29 29 29 29 29 29 30 30 30 30 29 29 29 30 31 31 30 30 29 29 29
26 26 27 26 26 26 25 26 26 26 26 26 25 25 25 26 27 27 27 27 28 29 29 29 29 29 29 29 29 30 29 29 29 29 29 29 29 30 30 30 30 30 30
26 26 26 27 26 26 26 26 26 26 26 25 25 25 25 25 26 26 27 27 28 28 28 28 28 28 28 28 29 29 29 29 28 28 29 28 29 29 29 29 29 29 30
27 27 27 26 26 26 26 26 26 26 26 25 25 25 25 25 26 26 25 25 26 26 27 27 27 27 28 28 29 29 29 30 29 29 29 29 29 29 29 29 29 29 30
27 27 27 26 26 26 26 26 25 25 25 25 25 25 25 25 25 26 26 25 25 25 26 26 27 27 27 27 28 28 29 29 29 29 29 29 29 29 28 28 30 30 30
27 27 26 27 26 26 26 24 24 24 25 25 25 26 26 26 26 26 25 25 25 24 24 24 24 25 26 26 26 27 28 28 28 28 28 29 29 29 28 28 29 29 29
Wind_Direction
287 282 277 274 273 270 268 268 270 268 262 260 259 260 258 259 255 255 257 260 261 261 260 258 258 259 260 261 261 263 265 264 263 265 266 265 265 264 263 263 262 260 261
291 283 279 275 272 271 270 267 268 267 264 261 260 260 260 262 262 262 261 260 260 261 262 259 257 259 261 263 263 264 265 264 265 266 268 265 266 265 262 261 260 260 260
291 285 281 277 275 272 271 269 269 268 264 261 261 260 260 261 263 262 261 259 260 261 262 260 260 261 263 264 265 265 264 264 265 266 267 266 264 263 262 258 259 260 262
288 287 284 281 277 274 274 272 268 266 264 262 262 260 261 261 259 261 261 260 261 261 262 262 264 265 265 265 265 264 264 264 264 265 266 267 264 263 262 259 259 258 260
288 287 285 283 279 275 273 271 267 265 264 263 264 262 260 260 260 261 261 262 264 265 263 262 264 265 265 265 265 264 264 264 264 264 264 266 264 262 261 260 259 258 259
289 288 288 284 282 279 276 274 270 266 265 267 267 264 262 263 263 263 263 263 265 267 266 263 263 264 264 265 265 264 264 263 262 262 263 264 263 261 261 260 260 259 259
291 290 289 287 284 282 280 277 272 268 267 269 269 268 266 266 266 265 263 263 265 266 267 266 264 263 263 263 264 264 263 263 261 261 262 262 262 261 259 258 260 260 260
292 291 289 289 285 283 280 276 273 270 269 269 269 268 267 266 266 266 263 262 264 265 266 269 267 265 265 265 265 263 261 260 261 260 261 261 261 261 260 259 259 261 261
293 292 291 291 287 282 279 276 274 270 268 269 270 269 268 267 267 266 266 264 265 266 267 269 270 267 266 265 265 263 260 260 260 260 260 260 261 261 260 259 260 261 262
292 292 291 290 286 281 278 276 273 270 269 269 269 270 271 270 269 267 266 265 265 265 266 268 268 267 267 266 265 262 262 262 260 259 259 258 259 259 259 260 261 260 261
292 290 291 290 288 283 279 277 274 272 270 270 271 271 271 272 271 271 269 268 266 265 265 266 267 266 266 266 266 265 264 264 262 261 259 258 258 257 257 259 261 261 262
291 290 290 289 286 283 278 277 276 273 271 271 271 271 270 271 270 270 269 269 267 265 266 267 268 268 267 267 267 267 265 263 262 262 261 260 258 256 256 257 259 260 261
292 290 288 287 285 281 277 277 276 274 274 272 272 271 269 269 268 269 270 269 269 268 268 269 269 268 269 268 268 267 266 265 263 262 261 260 260 258 259 258 258 259 260
296 293 287 285 284 282 280 280 277 276 276 273 272 272 270 269 269 269 270 270 269 270 270 271 271 271 270 270 269 268 267 266 264 262 260 259 259 259 258 258 258 259 259
297 293 291 290 288 286 284 281 279 278 276 274 273 272 271 269 269 269 269 270 270 270 271 271 271 272 272 271 270 268 267 265 264 262 261 260 258 258 258 257 258 259 259
297 296 292 289 289 288 286 285 283 282 279 277 274 272 273 272 269 269 270 270 270 271 272 271 272 272 271 271 270 268 266 265 265 264 262 260 259 258 258 258 258 257 258
297 297 296 291 290 288 286 285 284 283 280 279 276 273 272 271 271 270 269 270 271 271 271 270 271 273 272 271 270 268 265 265 266 265 262 259 259 259 259 259 258 256 257
296 294 293 291 289 288 288 287 286 286 283 281 279 275 272 270 271 270 269 269 270 270 270 270 271 272 272 271 270 269 267 266 265 264 262 260 258 258 258 257 256 256 256
295 295 295 291 289 289 290 290 288 286 285 284 280 277 272 270 271 270 269 270 269 269 270 270 272 271 271 270 268 268 267 267 266 265 262 260 258 258 258 256 255 255 255
296 296 295 293 292 290 290 291 288 287 286 284 280 276 274 272 272 272 271 270 270 271 271 271 273 273 272 271 269 268 268 268 267 265 262 259 258 258 258 256 255 254 255
297 296 296 295 294 292 291 290 288 286 285 283 281 278 277 274 274 273 272 271 272 273 273 273 273 273 275 273 270 269 267 266 265 264 261 259 257 257 258 257 256 255 254
299 298 297 296 294 293 291 289 288 286 284 282 280 279 277 276 275 273 273 272 272 272 273 274 274 274 275 274 271 269 268 266 265 263 261 259 259 256 255 255 256 255 254
300 299 298 298 295 294 292 289 286 286 285 282 280 279 278 278 277 275 274 273 273 273 275 275 275 275 275 273 271 269 267 265 265 263 261 260 259 257 255 253 254 254 254
301 300 299 298 296 294 291 289 286 285 283 282 279 278 278 277 275 275 275 274 274 275 275 274 275 275 275 275 271 269 266 265 264 264 262 260 260 258 255 254 253 254 254
302 300 300 299 298 295 292 290 288 285 283 282 281 280 279 277 275 274 273 273 274 275 276 274 274 274 275 275 274 271 268 266 264 263 262 261 259 258 255 254 254 255 255
303 301 299 299 298 296 294 292 291 288 285 283 282 281 280 278 275 272 272 273 273 274 275 274 275 275 276 276 275 272 268 266 264 262 262 260 258 257 255 255 256 255 254
Height
5853 5852 5852 5852 5852 5852 5852 5852 5852 5853 5854 5854 5855 5856 5858 5858 5859 5861 5861 5862 5864 5864 5865 5866 5867 5868 5869 5870 5871 5872 5873 5873 5874 5874 5875 5876 5877 5877 5878 5879 5879 5880 5881
5849 5848 5848 5848 5848 5847 5847 5847 5848 5849 5850 5851 5851 5852 5853 5854 5855 5856 5857 5858 5860 5861 5861 5862 5863 5864 5865 5866 5867 5868 5868 5869 5870 5871 5871 5872 5873 5873 5874 5875 5876 5876 5877
5845 5844 5844 5844 5844 5844 5843 5844 5845 5845 5846 5847 5847 5848 5849 5850 5851 5851 5852 5854 5855 5856 5857 5858 5859 5860 5861 5862 5863 5863 5864 5865 5866 5866 5867 5868 5868 5869 5870 5871 5872 5872 5874
5841 5841 5840 5840 5840 5840 5840 5840 5841 5841 5842 5843 5843 5844 5845 5846 5847 5848 5848 5849 5850 5851 5852 5853 5854 5855 5856 5857 5858 5858 5859 5860 5861 5862 5863 5863 5864 5865 5865 5866 5867 5868 5869
5837 5836 5836 5836 5836 5836 5836 5836 5837 5837 5838 5838 5839 5840 5841 5842 5843 5843 5844 5844 5845 5847 5848 5848 5849 5850 5851 5852 5852 5853 5854 5855 5856 5857 5857 5858 5859 5860 5861 5861 5862 5863 5864
5833 5832 5832 5832 5831 5831 5831 5831 5831 5832 5833 5833 5834 5835 5836 5837 5837 5838 5839 5840 5841 5841 5842 5843 5844 5844 5845 5846 5847 5848 5849 5850 5850 5851 5852 5853 5854 5855 5855 5856 5857 5858 5859
5828 5828 5827 5827 5826 5826 5826 5826 5826 5827 5827 5828 5829 5829 5830 5831 5832 5833 5833 5834 5835 5836 5836 5836 5837 5838 5839 5840 5841 5841 5842 5844 5845 5845 5846 5847 5848 5849 5850 5851 5852 5853 5854
5824 5823 5822 5821 5821 5820 5820 5820 5820 5821 5822 5822 5823 5823 5824 5826 5826 5827 5827 5828 5829 5830 5830 5830 5831 5831 5832 5834 5835 5835 5836 5837 5838 5839 5840 5841 5842 5843 5844 5845 5847 5848 5849
5818 5817 5816 5815 5815 5814 5814 5814 5814 5815 5816 5816 5816 5817 5817 5819 5820 5821 5821 5822 5822 5823 5824 5824 5824 5825 5825 5826 5827 5828 5829 5831 5832 5833 5834 5835 5836 5837 5838 5839 5841 5842 5843
5813 5811 5810 5809 5809 5808 5808 5808 5809 5809 5810 5810 5810 5811 5811 5811 5812 5813 5814 5815 5815 5816 5817 5817 5817 5818 5818 5819 5820 5821 5822 5823 5825 5826 5827 5828 5829 5830 5831 5833 5834 5835 5836
5807 5806 5805 5804 5803 5803 5802 5802 5803 5803 5803 5804 5804 5804 5804 5804 5805 5805 5806 5807 5808 5808 5809 5810 5809 5810 5811 5812 5813 5814 5815 5816 5817 5818 5819 5820 5822 5823 5824 5826 5827 5828 5830
5802 5801 5800 5799 5798 5797 5797 5796 5796 5797 5797 5797 5797 5797 5798 5798 5798 5798 5798 5799 5799 5800 5801 5802 5803 5803 5804 5805 5805 5806 5807 5808 5809 5810 5811 5813 5814 5815 5817 5819 5820 5821 5823
5797 5796 5794 5793 5792 5791 5790 5790 5790 5790 5790 5790 5790 5790 5790 5790 5791 5791 5791 5791 5792 5792 5793 5794 5794 5795 5796 5797 5797 5798 5799 5800 5801 5802 5803 5804 5806 5807 5809 5811 5812 5814 5815
5791 5790 5788 5787 5786 5785 5784 5783 5783 5783 5782 5782 5782 5782 5783 5783 5783 5783 5783 5784 5784 5785 5785 5786 5786 5787 5788 5789 5789 5790 5790 5791 5792 5793 5795 5796 5797 5799 5801 5803 5805 5806 5808
5786 5784 5782 5781 5780 5779 5778 5777 5776 5775 5775 5774 5774 5774 5775 5775 5775 5775 5775 5776 5776 5777 5778 5778 5778 5779 5779 5780 5781 5781 5782 5783 5784 5785 5786 5788 5789 5791 5792 5794 5796 5798 5800
5780 5778 5776 5775 5773 5772 5771 5770 5769 5767 5767 5766 5766 5766 5766 5766 5766 5766 5767 5767 5768 5769 5770 5770 5770 5771 5771 5772 5773 5773 5774 5774 5775 5776 5777 5779 5780 5782 5784 5785 5788 5790 5792
5774 5772 5770 5768 5767 5766 5764 5763 5761 5760 5759 5758 5758 5758 5758 5758 5758 5758 5759 5759 5760 5760 5761 5762 5762 5762 5763 5763 5764 5764 5765 5766 5767 5768 5769 5770 5772 5773 5775 5776 5779 5781 5783
5768 5766 5764 5762 5760 5759 5757 5756 5754 5753 5752 5751 5750 5750 5750 5750 5750 5750 5751 5751 5752 5752 5753 5754 5755 5754 5754 5755 5755 5755 5756 5757 5758 5758 5759 5761 5763 5764 5766 5768 5770 5772 5775
5762 5760 5758 5756 5754 5752 5750 5749 5747 5745 5744 5743 5742 5742 5742 5742 5742 5742 5743 5743 5744 5744 5745 5745 5746 5746 5746 5745 5746 5747 5747 5748 5748 5749 5750 5751 5753 5755 5757 5759 5761 5764 5766
5756 5754 5752 5749 5747 5745 5744 5742 5740 5738 5737 5736 5735 5735 5735 5735 5735 5735 5735 5735 5736 5736 5736 5736 5737 5737 5737 5736 5736 5737 5738 5738 5739 5740 5741 5742 5744 5746 5748 5751 5753 5755 5757
5750 5748 5745 5743 5740 5738 5737 5735 5733 5731 5730 5729 5728 5727 5727 5727 5727 5727 5727 5727 5727 5728 5728 5728 5728 5728 5728 5727 5727 5728 5728 5729 5730 5731 5732 5733 5735 5737 5739 5742 5744 5746 5749
5744 5741 5739 5736 5734 5731 5729 5727 5726 5724 5723 5722 5721 5720 5719 5719 5719 5719 5718 5719 5719 5719 5720 5719 5720 5720 5719 5718 5718 5718 5719 5720 5722 5723 5723 5725 5726 5728 5731 5733 5735 5738 5740
5737 5735 5732 5729 5727 5724 5722 5720 5718 5717 5715 5714 5713 5712 5712 5711 5711 5711 5711 5711 5711 5711 5711 5711 5711 5711 5710 5710 5709 5709 5710 5711 5713 5713 5714 5716 5718 5719 5722 5724 5727 5729 5731
5731 5728 5725 5722 5719 5717 5715 5712 5710 5709 5708 5707 5706 5705 5704 5704 5703 5703 5703 5703 5703 5703 5703 5702 5702 5702 5701 5701 5700 5701 5701 5702 5703 5704 5705 5707 5709 5711 5712 5715 5718 5720 5723
5724 5721 5718 5715 5712 5710 5707 5705 5703 5701 5700 5699 5698 5697 5696 5696 5696 5695 5695 5695 5695 5695 5694 5694 5694 5693 5693 5692 5692 5691 5692 5693 5694 5695 5696 5698 5700 5702 5703 5706 5708 5711 5714
5717 5713 5711 5708 5705 5703 5700 5697 5695 5694 5693 5692 5691 5689 5688 5688 5687 5687 5687 5687 5687 5687 5686 5685 5685 5685 5684 5683 5683 5682 5683 5684 5685 5686 5687 5689 5691 5692 5695 5697 5700 5702 5705